Theta_e
298 299 300 300 302 304 304 304 305 307 309 310 311 311 311 310 310 309 308 306 305 306 307 305 305 305 305 304 302 300 300 299
297 297 298 299 300 300 301 302 303 305 305 306 307 308 310 310 310 310 307 306 303 303 302 301 301 301 301 301 299 298 299 298
296 296 296 296 296 297 297 298 299 302 303 303 304 304 305 305 304 304 305 303 303 302 302 301 300 300 299 299 298 297 295 295
295 295 294 294 294 295 295 296 297 299 300 300 300 301 301 301 301 300 300 300 300 297 299 298 297 297 297 297 296 296 296 295
294 293 293 293 293 293 293 294 295 295 295 295 296 296 297 298 298 298 298 298 298 298 297 296 296 294 295 292 294 294 294 294
292 292 292 292 292 292 292 292 293 292 292 291 292 292 293 293 294 295 295 295 295 294 295 294 292 292 293 293 293 292 292 292
291 290 290 290 291 291 290 290 291 290 289 289 289 289 290 290 290 292 292 292 292 292 292 291 291 290 291 291 292 291 290 290
291 291 289 289 289 290 289 289 288 288 287 286 286 286 287 288 288 288 290 290 290 290 290 290 291 290 290 290 290 290 290 290
291 290 288 288 289 289 288 287 286 285 285 284 284 284 285 286 286 287 288 288 288 288 288 288 288 288 289 289 289 289 289 288
292 287 286 285 286 286 285 285 284 283 283 283 282 281 283 283 284 285 284 285 286 286 287 287 287 288 288 288 288 287 287 288
286 284 283 282 284 284 282 281 280 279 280 281 281 279 280 282 282 283 284 285 286 287 287 286 285 286 286 287 287 286 286 287
284 282 280 280 281 280 279 277 277 277 278 278 278 278 280 280 281 283 285 284 285 285 286 286 285 285 286 286 286 285 285 285
280 278 277 277 278 277 275 274 274 273 274 274 275 277 279 278 280 281 283 284 284 284 285 286 286 284 286 286 286 286 285 284
278 275 274 274 273 274 272 271 270 268 269 272 274 276 278 278 278 280 281 282 283 283 283 284 286 286 286 285 285 284 283 283
275 274 272 271 269 269 268 267 265 267 270 272 272 273 275 278 280 279 279 279 280 280 281 282 283 286 287 286 285 284 284 284
274 272 269 269 268 266 265 264 265 267 270 271 272 272 273 275 277 279 280 281 280 281 281 281 281 284 286 286 285 285 285 284
270 269 267 267 266 264 262 262 262 267 268 269 269 271 272 273 275 279 281 282 283 283 283 284 286 286 286 286 287 287 287 284
267 265 265 264 264 262 262 261 261 263 265 267 268 269 270 271 272 273 277 280 282 283 284 285 284 284 285 285 285 286 286 284
264 263 262 262 262 261 261 260 260 262 262 265 267 268 268 269 270 272 272 274 277 282 282 282 282 283 284 283 283 283 284 284
261 260 260 260 261 260 259 260 261 264 265 265 266 267 267 268 270 272 274 275 277 279 280 280 280 281 278 277 275 275 277 276
Wind_Speed
6 7 6 8 8 8 8 8 7 6 5 4 4 3 1 1 2 2 1 1 1 2 3 2 3 4 5 5 6 8 8 8
5 7 6 8 8 8 8 8 7 6 5 5 4 4 4 3 2 2 1 2 2 2 2 3 3 4 4 5 5 8 8 7
5 7 7 8 8 9 8 8 7 6 6 6 5 5 4 4 4 4 3 3 3 3 3 3 4 4 4 5 4 7 7 7
6 6 7 7 8 8 7 9 8 7 7 7 7 6 6 5 4 3 3 3 3 3 4 4 4 5 5 5 5 6 7 8
6 6 7 6 6 7 8 8 8 8 8 9 8 7 6 5 5 5 5 5 4 4 4 4 4 4 6 5 7 8 8 9
7 6 6 5 6 6 9 9 8 9 10 9 8 8 8 8 7 5 4 4 4 5 5 5 5 3 6 6 8 9 10 8
8 6 5 4 5 7 8 8 7 8 8 8 9 9 8 7 6 5 5 5 5 5 5 6 3 7 10 10 8 7 9 10
10 7 5 5 5 6 6 5 7 7 7 7 7 6 7 7 7 6 7 6 6 6 6 6 6 9 11 10 7 9 10 11
9 7 5 5 5 5 5 5 5 5 5 5 6 5 6 6 6 6 6 6 6 6 7 7 6 10 11 10 8 9 10 11
7 7 6 6 5 5 5 5 5 7 7 8 8 8 8 6 7 6 6 5 6 5 6 6 7 11 12 10 7 8 9 9
10 8 7 5 3 4 4 5 7 8 8 7 7 7 7 8 8 7 7 7 6 5 5 6 7 11 12 10 6 8 7 8
10 8 6 4 2 5 5 7 6 7 6 7 7 7 6 7 7 7 6 7 7 6 5 5 5 7 11 11 7 7 7 6
9 8 5 5 3 5 6 6 7 8 8 8 7 6 6 8 8 8 7 7 8 6 6 5 5 6 8 10 11 11 7 8
8 8 5 6 7 5 5 8 8 7 6 7 8 6 7 7 8 7 7 7 8 7 8 7 5 5 9 8 11 12 8 6
7 6 6 5 6 5 5 7 6 7 8 8 9 10 8 7 5 6 7 7 7 8 8 8 7 6 6 5 4 8 7 9
6 6 5 3 4 5 6 6 6 7 7 8 7 8 9 8 8 7 7 7 8 8 8 8 10 9 13 11 7 5 7 8
6 5 4 4 4 4 4 5 5 6 5 6 7 7 7 8 10 12 14 16 17 19 15 10 15 18 19 18 18 18 17 6
5 4 4 3 2 2 3 3 3 4 5 5 5 6 7 8 9 11 11 16 16 18 19 18 18 20 19 18 18 19 16 6
5 4 3 3 2 2 3 3 3 4 5 4 5 6 6 7 8 8 9 11 10 12 15 17 18 16 14 14 15 8 7 5
6 4 3 3 1 2 3 3 4 4 3 4 5 5 7 7 7 8 9 9 10 9 9 8 13 12 9 11 6 6 7 7
Wind_Direction
91 79 70 71 64 58 59 63 56 56 46 25 8 12 9 316 303 303 3 5 276 259 258 249 238 224 202 207 205 206 215 217
104 91 79 71 66 59 50 52 50 43 46 50 41 22 6 350 356 320 296 270 230 216 230 242 244 233 219 219 203 215 225 220
108 89 74 68 60 56 46 48 35 36 46 49 46 35 38 27 4 8 356 334 309 268 253 256 257 261 246 238 220 226 231 230
114 95 84 70 62 59 49 55 46 48 48 40 32 27 25 26 2 353 340 302 289 275 265 259 262 262 248 242 234 232 234 228
119 96 81 71 71 68 61 52 51 53 53 47 31 20 13 2 9 1 347 316 303 293 295 292 287 264 261 248 250 244 239 234
134 115 105 98 87 79 61 51 44 51 46 36 26 23 22 19 8 347 331 331 332 327 322 311 295 287 284 275 276 277 279 273
147 143 125 126 88 72 62 53 48 52 43 27 23 20 16 8 2 7 9 10 359 345 323 311 292 285 280 272 275 274 268 271
165 148 144 96 79 77 70 59 53 48 36 26 16 13 7 358 3 7 9 357 359 356 336 323 312 309 300 287 276 276 272 274
158 145 112 96 96 101 85 69 61 48 35 19 9 3 358 360 8 8 1 356 349 345 334 320 312 311 307 300 286 276 275 276
143 118 99 77 69 86 71 60 44 25 14 5 2 354 351 355 353 353 342 337 331 312 304 307 304 311 311 310 294 281 280 276
131 116 99 61 61 107 78 56 33 9 354 347 346 340 340 338 332 328 318 299 300 293 293 290 295 311 316 312 290 290 291 289
130 114 93 59 64 82 59 36 3 348 339 344 345 332 326 323 318 309 292 298 291 280 279 281 287 303 309 314 302 293 293 283
126 113 82 50 56 77 53 6 357 349 344 335 331 328 332 323 317 309 293 283 295 292 293 282 274 271 293 307 308 302 296 294
130 123 83 53 36 58 25 0 353 342 338 333 331 328 328 322 323 320 322 316 313 309 306 304 298 278 271 279 306 302 295 296
128 110 86 53 55 48 19 359 347 344 342 339 339 337 335 324 318 317 317 316 310 308 304 301 296 284 282 271 268 267 280 273
120 114 107 88 74 49 20 3 355 343 340 341 333 330 325 322 315 308 297 295 302 296 290 293 288 287 286 279 282 278 278 286
123 125 104 84 66 43 16 8 354 334 336 333 324 327 323 321 318 312 299 295 295 296 286 279 278 300 301 301 299 291 287 275
131 112 107 100 113 39 2 340 337 319 316 318 315 323 324 326 322 319 319 310 302 298 296 294 299 300 299 299 298 295 291 251
123 122 128 129 110 1 335 315 305 300 288 305 315 313 315 315 311 306 307 310 312 308 310 305 303 304 313 327 319 293 271 253
137 142 147 136 121 346 328 315 320 316 321 319 305 303 304 298 297 298 302 305 307 309 316 332 328 324 4 4 351 330 335 352